Showing default

PRAETORIAN SDA_611, 65574

Orbit data source: Space-Track

PRAETORIAN SDA_611, 65574 is a payload satellite owned by SDA (US) in LEO that was launched on Wed, 10 Sep 2025 UTC via an FALCON 9 launch vehicle from the Air Force Western Test Range (AFWTR). Payload-class satellites include a variety of spacecraft equipped with specific instruments for various scientific and technological missions. These include communications satellites like Starlink; space stations such as the ISS; scientific satellites like the Hubble; Earth observation satellites from companies like Planet Labs, Umbra, and HawkEye 360; GPS; miniature CubeSats for education and research; and military/defense satellites.

Loading next visibility...
Identifier
65574, 2025-203K
Orbit
LEO
Country
Flag of USUS
Related business
Manufacturer
York Space Sys
Mission
Operational Defense Communications
Bus & Motor
S-CLASS, Unknown motor
Mass
~300 kg wet, ~300 kg dry
Launch date (UTC)
2025-09-10 (9 months ago)
Launch vehicle
FALCON 9
Launch site
Air Force Western Test Range (AFWTR)
Object type
Payload
Rocket body
Debris
Shape & HBR
Box + 4 Pan, 14.5 m
Radar Cross Section
1.244 m², Large (>1 m²)

Expand to show TLE details & history
Last TLE update: 13 hours ago

TLE from 13 hours ago
0 PRAETORIAN SDA_611
1 65574U 25203K   26171.31132722  .00000106  00000-0  86060-4 0  9998
2 65574  81.3015   8.0406 0005502 185.6554 174.4541 13.83309355 39111
Epoch: 2026-06-20T07:28Z
TLE epoch observation values (Epoch: 2026-06-20T07:28:18.671Z)
Latitude
-0.00004°
Longitude
-12.56497°
Altitude
959.052 km
Speed
7.37 km/s
True Right ascension
00h 32m 09s
True Declination
0° 00' 00"
Sunlit
Object was in daylight at epoch
Visualization orbit readout
Latitude
Unknown
Longitude
Unknown
Altitude
Unknown
Speed
Unknown
Apparent Right ascension
Unknown
Apparent Declination
Unknown
Sunlit
N/A
Visualization observer readout
Local Sidereal Time
07:13:22
Azimuth
Unknown
Elevation
Unknown
Doppler factor
Unknown
Orbital elements
Apogee altitude
953.411 km
Perigee altitude
945.348 km
Semi-major axis
7,327.517 km
Eccentricity
0.00055
Inclination
81.3015°
RAAN
8.0406°
Arg. of periapsis
185.6554°
True anomaly
174.46019°
Mean anomaly
174.4541°
Eccentric anomaly
174.45714°
Mean motion
3.46025 °/min
Orbital period
104.04 mins
BSTAR
0.00008606
Loading maneuver chart data...
Computing Atmospheric mass density...
Loading historical data...
Loading historical data...
Loading historical data...
Loading historical data...
Loading historical data...
Loading historical data...
Loading historical data...

Documentation

Showing up to 5 results
|